User: anonymous   Login
Location: Unspecified
(0.0000°N, 0.0000°E)
Time: 16:16:38
(UTC+02:00)
Language:

CZ-4B R/B - Orbit

View from above orbital plane
View from above orbital plane
View from above satellite
View from above satellite

Ground track
Ground track

The orbit data is extracted from the following two-line orbital elements,

1 33410U 08053C   16125.50350496  .00000633  00000-0  51308-4 0  9997
2 33410  97.6760  95.4314 0122677 122.1633 239.1559 14.97627258409601
Epoch (UTC): 04 May 2016 12:05:02
Eccentricity: 0.0122677
inclination: 97.6760°
perigee height: 489 km
apogee height: 659 km
right ascension of ascending node: 95.4314°
argument of perigee: 122.1633°
revolutions per day: 14.97627258
mean anomaly at epoch: 239.1559°
orbit number at epoch: 40960

The dashed part of the orbit path shows where the satellite is in the earth's shadow,  

DLR